Location: Champs
(48.8539°N, 2.6040°E)
Time: 00:35:35
(UTC+00:00)

DMSP 5D-2 F13 DEB - Pass Details

Date: 19 August 2022
Orbit: 710 x 774 km, 98.8° (Epoch: 28 September)

Event Time Altitude Azimuth Distance (km) Brightness Sun altitude
Exits shadow 23:03:31 79° 27° (NNE) 799 ? -27.6°
Drops below altitude 10° 23:08:28 10° 347° (NNW) 2,347 ? -27.8°
Sets 23:10:48 0° 346° (NNW) 3,279 ? -27.9°
